User: anonymous   Login
Location: Freistadt
(48.5112°N, 14.5013°E)
Time: 11:44:21
(UTC+02:00)
Language:

NOAA 16 DEB - Orbit

View from above orbital plane
View from above orbital plane
View from above satellite
View from above satellite

Ground track
Ground track

The orbit data is extracted from the following two-line orbital elements,

1 42365U 00055RH  24146.23326450  .00009902  00000-0  34444-2 0  9993
2 42365  98.9748 303.0990 0049454 201.4509 158.4603 14.34947478429944
Epoch (UTC): 25 May 2024 05:35:54
Eccentricity: 0.0049454
inclination: 98.9748°
perigee height: 740 km
apogee height: 810 km
right ascension of ascending node: 303.0990°
argument of perigee: 201.4509°
revolutions per day: 14.34947478
mean anomaly at epoch: 158.4603°
orbit number at epoch: 42994

The dashed part of the orbit path shows where the satellite is in the earth's shadow,  

DLR